Location: Greenwich
(51.4790°N, 0.0090°E)
Time: 01:11:59
(UTC+01:00)

deb Explorer IX - All Passes

Search period start: 17 April 2024 00:00
Search period end: 27 April 2024 00:00
Orbit: 513 x 904 km, 38.7° (Epoch: 15 April)

Date Brightness Start Highest point End Pass type
(mag) Time Alt. Az. Time Alt. Az. Time Alt. Az.
17 Apr - 12:41:42 10° S 12:44:13 13° SSE 12:46:45 10° SE daylight
17 Apr - 14:22:54 10° SW 14:27:34 22° S 14:32:10 10° ESE daylight
17 Apr - 16:06:23 10° WSW 16:11:08 23° S 16:15:42 10° SE daylight
17 Apr - 17:51:31 10° SW 17:54:27 14° SSW 17:57:18 10° S daylight
18 Apr - 13:25:04 10° SSW 13:29:24 20° SSE 13:33:44 10° ESE daylight
18 Apr - 15:08:03 10° SW 15:12:56 25° S 15:17:43 10° SE daylight
18 Apr - 16:52:27 10° WSW 16:56:24 18° SSW 17:00:14 10° SSE daylight
19 Apr - 12:27:33 10° SSW 12:31:14 17° SSE 12:34:57 10° ESE daylight
19 Apr - 14:09:49 10° SW 14:14:40 24° S 14:19:30 10° SE daylight
19 Apr - 15:53:43 10° WSW 15:58:13 21° SSW 16:02:38 10° SSE daylight
19 Apr - 17:40:32 10° SW 17:41:25 10° SSW 17:42:16 10° SSW daylight
20 Apr - 11:30:34 10° S 11:33:05 13° SSE 11:35:37 10° SE daylight
20 Apr - 13:11:44 10° SW 13:16:23 23° S 13:21:04 10° ESE daylight
20 Apr - 14:55:10 10° WSW 14:59:57 24° S 15:04:41 10° SE daylight
20 Apr - 16:40:10 10° WSW 16:43:18 14° SSW 16:46:23 10° S daylight
21 Apr - 12:13:51 10° SSW 12:18:04 20° SSE 12:22:24 10° ESE daylight
21 Apr - 13:56:44 10° SW 14:01:34 25° S 14:06:28 10° SE daylight
21 Apr - 15:41:02 10° WSW 15:45:04 18° SSW 15:49:03 10° SSE daylight
22 Apr - 11:16:15 10° SSW 11:19:46 16° SSE 11:23:24 10° ESE daylight
22 Apr - 12:58:26 10° SW 13:03:10 24° S 13:08:01 10° SE daylight
22 Apr - 14:42:13 10° WSW 14:46:43 21° SSW 14:51:12 10° SSE daylight
22 Apr - 16:28:52 10° SW 16:29:56 10° SSW 16:31:01 10° SSW daylight
23 Apr - 10:19:17 10° S 10:21:30 12° SSE 10:23:46 10° SE daylight
23 Apr - 12:00:17 10° SW 12:04:44 22° S 12:09:22 10° ESE daylight
23 Apr - 13:43:36 10° WSW 13:48:17 23° S 13:53:02 10° SE daylight
23 Apr - 15:28:32 10° SW 15:31:39 14° SSW 15:34:46 10° S daylight
24 Apr - 11:02:20 10° SSW 11:06:19 19° SSE 11:10:28 10° ESE daylight
24 Apr - 12:45:07 10° SW 12:49:46 24° S 12:54:35 10° SE daylight
24 Apr - 14:29:19 10° WSW 14:33:15 18° SSW 14:37:13 10° SSE daylight
25 Apr - 10:04:43 10° SSW 10:07:54 16° SSE 10:11:14 10° ESE daylight
25 Apr - 11:46:46 10° SW 11:51:14 23° S 11:55:57 10° SE daylight
25 Apr - 13:30:27 10° WSW 13:34:45 21° SSW 13:39:10 10° SSE daylight
25 Apr - 15:17:19 10° SW 15:17:59 10° SSW 15:18:38 10° SSW daylight
26 Apr - 09:07:53 10° S 09:09:32 11° SSE 09:11:13 10° SE daylight
26 Apr - 10:48:33 10° SW 10:52:42 21° S 10:57:04 10° ESE daylight
26 Apr - 12:31:45 10° WSW 12:36:10 22° S 12:40:47 10° SE daylight
26 Apr - 14:16:38 10° SW 14:19:32 14° SSW 14:22:28 10° S daylight
